sat.trackr.live / text

‹ back to catalog

2024-092K

NORAD 59809 · 2024-092K

PAYLOAD ACTIVE UNKNOWN

§ Identity

Operator
Country
CIS
Launch date
2024-05-16
Launch site
PLMSC
Launch vehicle
Mass (kg)
RCS (m²)

External: N2YO · Heavens-Above · Gunter

§ Orbital elements

Epoch: 2026-09-22T14:35:44.615328Z

Period
93.51 min
Inclination
97.6684°
Eccentricity
0.0006969
Mean motion
15.39876872 rev/d
Perigee alt
441.7 km
Apogee alt
451.2 km
Semi-major
6,824.6 km
B*
4.1974e-4
RAAN
42.7369°
Arg perigee
155.7233°
Mean anomaly
204.4342°
Rev number
13,021

§ Raw data

2024-092K1 59809U 24092K   26265.60815527  .00016619  00000+0  41974-3 0  99932 59809  97.6684  42.7369 0006969 155.7233 204.4342 15.39876872130212

JSON: /api/v1/satellites/59809 · /tle

For live sub-satellite position, see the globe view (requires WebGL).

§ Visibility from observer

Set your observer location to see the next 7 days of passes ≥ 10°. The values pass through the URL so the page stays shareable.

No JS? Fill the form by hand. The geolocation button needs JavaScript.

§ Radio — SatNOGS DB

ModeDescriptionDownlinkUplink
FSK Telemetry USP 401.108 MHz

1 transmitter · refreshed weekly from db.satnogs.org